"Pseudo-MPEC" for C0R8Q72

Created 2019 Jun 19 17:07:22 UT using Find_Orb

Click here for an explanation of pseudo-MPECs

 
 Astrometry: 
     C0R8Q72  C2019 06 11.42346 20 53 38.39 -16 30 42.0    ~6BAq 20.2 GVNEOCPG96
     C0R8Q72  C2019 06 11.42778 20 53 41.17 -16 31 54.8    ~6BAq 19.9 GVNEOCPG96
     C0R8Q72  C2019 06 11.43209 20 53 43.99 -16 33 06.6    ~6BAq 19.9 GVNEOCPG96
     C0R8Q72  C2019 06 11.43640 20 53 46.75 -16 34 19.7    ~6BAq 20.6 GVNEOCPG96
     C0R8Q72  C2019 06 11.46435 20 54 04.89 -16 42 10.7    ~6BBM 19.4 GVNEOCPG96
     C0R8Q72  C2019 06 11.46458 20 54 05.01 -16 42 14.5    ~6BBM 19.6 GVNEOCPG96
     C0R8Q72  C2019 06 11.46482 20 54 05.17 -16 42 18.1    ~6BBM 19.8 GVNEOCPG96
     C0R8Q72  C2019 06 11.46505 20 54 05.32 -16 42 22.1    ~6BBM 19.3 GVNEOCPG96
     C0R8Q72  C2019 06 12.37251 21 05 32.76 -21 15 35.8    ~6C9M 20.5 GVNEOCPG96
     C0R8Q72  C2019 06 12.37367 21 05 33.65 -21 15 57.8    ~6C9M 20.2 GVNEOCPG96
     C0R8Q72  C2019 06 12.37425 21 05 34.09 -21 16 10.0    ~6C9M 20.3 GVNEOCPG96
     C0R8Q72  C2019 06 12.37953 21 05 38.32 -21 17 51.9    ~6CBM 19.8 GVNEOCPG96
     C0R8Q72  C2019 06 12.37994 21 05 38.61 -21 17 59.0    ~6CBM 19.6 GVNEOCPG96
     C0R8Q72  C2019 06 12.38034 21 05 38.99 -21 18 07.8    ~6CBM 19.8 GVNEOCPG96
     C0R8Q72  C2019 06 12.38075 21 05 39.30 -21 18 15.4    ~6CBM 19.7 GVNEOCPG96
     C0R8Q72  C2019 06 13.43353 21 22 03.38 -27 21 20.2    ~6DAq 18.8 GVNEOCPI52
     C0R8Q72  C2019 06 13.43428 21 22 04.12 -27 21 37.5    ~6DAq 18.9 GVNEOCPI52
     C0R8Q72  C2019 06 13.43502 21 22 04.83 -27 21 53.1    ~6DAq 18.9 GVNEOCPI52

Station data:
(G96) Mt. Lemmon Survey  (N32.442754 W110.788720)  US/Arizona.  Observers T.
   A. Pruyne, B. M. Africano, E. J. Christensen, G. A. Farneth, D. C. Fuls,
   A. R. Gibbs, A. D. Grauer, H. Groeller, J. A. Johnson, R. A. Kowalski, S.
   M. Larson, G. J. Leonard, R. L. Seaman, F. C. Shelly. 1.5-m reflector +
   10K CCD.
(I52) Steward Observatory, Mt. Lemmon Station  (N32.442547 W110.788920)
   US/Arizona.  Observers T. A. Pruyne, B. M. Africano, E. J. Christensen, G.
   A. Farneth, D. C. Fuls, A. R. Gibbs, A. D. Grauer, H. Groeller, J. A.
   Johnson, R. A. Kowalski, S. M. Larson, G. J. Leonard, R. L. Seaman, F. C.
   Shelly. 1.0-m reflector + CCD.

Orbital elements:  C0R8Q72
   Perihelion 2019 Sep 1.895017 +/- 0.377 TT = 21:28:49 (JD 2458728.395017)
Epoch 2019 Jun 13.0 TT = JDT 2458647.5   Earth MOID: 0.0496   AutoNEOCP
M 286.70244950 +/- 0.7              (J2000 ecliptic)
n   0.90608239 +/- 0.00541          Peri.  291.37761 +/- 0.50
a   1.05768802 +/- 0.00421          Node    83.93863 +/- 0.027
e   0.3201559 +/- 0.00193           Incl.   33.26643 +/- 0.25
P   1.09/397.31d           H 23.4   G  0.15   U  9.2  
q 0.71906292 +/- 0.000824    Q 1.39631313 +/- 0.00755
From 18 observations 2019 June 11-13; mean residual 0".30
Residuals in arcseconds: 
190611 G96  .03-  .07-    190611 G96  .10-  .30+    190612 G96  .52-  .73+    
190611 G96  .16-  .26-    190611 G96  .09-  .19+    190612 G96  .34+  .32-    
190611 G96  .34+  .42+    190612 G96  .43+  .12-    190612 G96  .11+  .04+    
190611 G96  .03-  .18-    190612 G96  .04-  .36+    190613 I52  .35+  .23+    
190611 G96  .27+  .23-    190612 G96  .35-  .60-    190613 I52  .09+  .49-    
190611 G96  .16-  .14-    190612 G96  .01-  .13-    190613 I52  .43-  .27+    

Ephemerides (geocentric):
Date (UTC) HH   RA              Dec         delta   r     elong  mag " sig PA
---- -- -- --  -------------   -----------  ------ ------ -----  --- ---- ---
2019 06 19 17  01 35 18.928   -61 21 18.48  .07837 1.0312  98.9 20.6 6.51  95
2019 06 19 18  01 37 51.974   -61 24 17.89  .07858 1.0309  98.7 20.6 6.57  95
2019 06 19 19  01 40 24.684   -61 27 05.70  .07879 1.0307  98.5 20.6 6.63  94
2019 06 19 20  01 42 57.022   -61 29 42.04  .07900 1.0305  98.3 20.6 6.69  94
2019 06 19 21  01 45 28.951   -61 32 07.01  .07921 1.0302  98.1 20.7 6.75  93
2019 06 19 22  01 48 00.438   -61 34 20.74  .07942 1.0300  97.9 20.7 6.81  93
2019 06 19 23  01 50 31.447   -61 36 23.36  .07964 1.0298  97.7 20.7 6.86  92
2019 06 20 00  01 53 01.945   -61 38 14.99  .07986 1.0296  97.5 20.7 6.92  91
2019 06 20 01  01 55 31.900   -61 39 55.78  .08008 1.0293  97.3 20.7 6.98  91
2019 06 20 02  01 58 01.278   -61 41 25.87  .08030 1.0291  97.1 20.7 7.03  90
2019 06 20 03  02 00 30.048   -61 42 45.39  .08052 1.0289  96.9 20.7 7.09  90
2019 06 20 04  02 02 58.181   -61 43 54.49  .08075 1.0286  96.7 20.7 7.14  89
2019 06 20 05  02 05 25.646   -61 44 53.31  .08098 1.0284  96.5 20.8 7.20  89
2019 06 20 06  02 07 52.413   -61 45 42.01  .08121 1.0282  96.3 20.8 7.25  88
2019 06 20 07  02 10 18.457   -61 46 20.75  .08144 1.0280  96.1 20.8 7.30  88
2019 06 20 08  02 12 43.748   -61 46 49.67  .08168 1.0277  95.9 20.8 7.36  87
2019 06 20 09  02 15 08.261   -61 47 08.94  .08192 1.0275  95.7 20.8 7.41  87
2019 06 20 10  02 17 31.972   -61 47 18.71  .08216 1.0273  95.5 20.8 7.46  86
2019 06 20 11  02 19 54.855   -61 47 19.14  .08240 1.0270  95.3 20.8 7.52  85
2019 06 20 12  02 22 16.888   -61 47 10.40  .08264 1.0268  95.1 20.8 7.57  85
2019 06 20 13  02 24 38.048   -61 46 52.66  .08288 1.0266  94.9 20.9 7.62  84
2019 06 20 14  02 26 58.315   -61 46 26.07  .08313 1.0264  94.7 20.9 7.67  84
2019 06 20 15  02 29 17.667   -61 45 50.81  .08338 1.0261  94.5 20.9 7.72  83
2019 06 20 16  02 31 36.087   -61 45 07.03  .08363 1.0259  94.3 20.9 7.77  83
2019 06 20 17  02 33 53.555   -61 44 14.92  .08388 1.0257  94.2 20.9 7.82  82
2019 06 20 18  02 36 10.055   -61 43 14.62  .08414 1.0254  94.0 20.9 7.87  82
2019 06 20 19  02 38 25.571   -61 42 06.33  .08439 1.0252  93.8 20.9 7.92  81
2019 06 20 20  02 40 40.087   -61 40 50.19  .08465 1.0250  93.6 20.9 7.97  81
2019 06 20 21  02 42 53.589   -61 39 26.38  .08491 1.0247  93.4 21.0 8.02  80
2019 06 20 22  02 45 06.064   -61 37 55.07  .08517 1.0245  93.2 21.0 8.06  80
2019 06 20 23  02 47 17.499   -61 36 16.43  .08543 1.0243  93.0 21.0 8.11  79
2019 06 21 00  02 49 27.884   -61 34 30.61  .08570 1.0241  92.9 21.0 8.16  79
2019 06 21 01  02 51 37.208   -61 32 37.80  .08596 1.0238  92.7 21.0 8.21  78
2019 06 21 02  02 53 45.462   -61 30 38.14  .08623 1.0236  92.5 21.0 8.25  78
2019 06 21 03  02 55 52.637   -61 28 31.82  .08650 1.0234  92.3 21.0 8.30  77
2019 06 21 04  02 57 58.725   -61 26 18.98  .08677 1.0231  92.2 21.0 8.34  77
2019 06 21 05  03 00 03.719   -61 23 59.80  .08705 1.0229  92.0 21.0 8.39  76
2019 06 21 06  03 02 07.614   -61 21 34.42  .08732 1.0227  91.8 21.1 8.43  76
2019 06 21 07  03 04 10.404   -61 19 03.02  .08760 1.0225  91.6 21.1 8.48  76
2019 06 21 08  03 06 12.085   -61 16 25.75  .08788 1.0222  91.5 21.1 8.52  75
2019 06 21 09  03 08 12.654   -61 13 42.77  .08816 1.0220  91.3 21.1 8.57  75
2019 06 21 10  03 10 12.107   -61 10 54.23  .08844 1.0218  91.1 21.1 8.61  74
2019 06 21 11  03 12 10.442   -61 08 00.28  .08872 1.0215  90.9 21.1 8.65  74
2019 06 21 12  03 14 07.658   -61 05 01.08  .08900 1.0213  90.8 21.1 8.69  73
2019 06 21 13  03 16 03.754   -61 01 56.77  .08929 1.0211  90.6 21.1 8.74  73
2019 06 21 14  03 17 58.730   -60 58 47.50  .08958 1.0208  90.4 21.2 8.78  72
2019 06 21 15  03 19 52.586   -60 55 33.42  .08987 1.0206  90.3 21.2 8.82  72
2019 06 21 16  03 21 45.324   -60 52 14.67  .09016 1.0204  90.1 21.2 8.86  72